Saginaw, MI

7:57 AM EDT on October 20, 2017 (GMT -0400)
MBS International

Weather History for KMBS - January, 2014

Change the Weather History Date:

Sunday, January 5, 2014

  Actual Average Record
Temperature  
Mean Temperature 23 °F 23 °F  
Max Temperature 29 °F 29 °F 54 °F (1997)
Min Temperature 16 °F 17 °F -2 °F (1999)
Degree Days  
Heating Degree Days 42    
Month to date heating degree days 258  
Since 1 July heating degree days 2962  
Cooling Degree Days 0    
Month to date cooling degree days 0  
Year to date cooling degree days 0  
Moisture  
Dew Point 20 °F    
Average Humidity 92    
Maximum Humidity 100    
Minimum Humidity 84    
Precipitation  
Precipitation 0.75 in 0.06 in 1.39 in (1998)
Month to date precipitation 0.87 0.32  
Year to date precipitation 0.87 0.32  
Snow  
Snow 7.10 in - - ()
Month to date snowfall 8.5  
Since 1 July snowfall 29.0  
Snow Depth 10.00 in    
Sea Level Pressure  
Sea Level Pressure 29.92 in    
Wind  
Wind Speed 15 mph (North)    
Max Wind Speed 26 mph    
Max Gust Speed 31 mph    
Visibility 2 miles    
Events Fog , Snow    
T = Trace of Precipitation, MM = Missing Value Source: NWS Daily Summary

Daily Weather History Graph

Daily Weather History Graph

Search for Another Location

Airport or City:

Trip Planner

Search our weather history database for the weather conditions in past years. The results will help you decide how hot, cold, wet, or windy it might be!

Date:

Astronomy

Jan. 05, 2014 Rise Set
Actual Time 8:09 AM EST 5:14 PM EST
Civil Twilight 7:37 AM EST 5:46 PM EST
Nautical Twilight 7:01 AM EST 6:22 PM EST
Astronomical Twilight 6:26 AM EST 6:57 PM EST
Moon 10:40 AM EST (1/5) 10:51 PM EST (1/5)
Length of Visible Light 10h 09m
Length of Day
9h 05m
Waxing Crescent, 24% of the Moon is Illuminated
Jan 5
Waxing Crescent
Jan 7
First Quarter
Jan 15
Full
Jan 24
Last Quarter
Jan 30
New

Hourly Weather History & Observations

Time (EST) Temp. Windchill Dew Point Humidity Pressure Visibility Wind Dir Wind Speed Gust Speed Precip Events Conditions
12:25 AM 28.4 °F 22.2 °F 26.6 °F 93% 29.99 in 8.0 mi SSW 5.8 mph - N/A   Overcast
12:53 AM 28.9 °F 22.8 °F 27.0 °F 92% 30.03 in 6.0 mi SSW 5.8 mph - N/A   Overcast
1:53 AM 28.9 °F 23.9 °F 27.0 °F 92% 30.04 in 4.0 mi SW 4.6 mph - N/A   Overcast
2:51 AM 28.4 °F - 28.4 °F 100% 30.02 in 3.0 mi Calm Calm - N/A   Overcast
2:53 AM 28.9 °F - 28.0 °F 96% 30.05 in 3.0 mi Calm Calm - N/A   Overcast
3:05 AM 28.4 °F - 28.4 °F 100% 30.02 in 2.0 mi Calm Calm - N/A   Overcast
3:15 AM 28.4 °F - 26.6 °F 93% 30.02 in 1.5 mi Calm Calm - N/A   Overcast
3:53 AM 28.9 °F 25.2 °F 28.0 °F 96% 30.04 in 2.0 mi NNW 3.5 mph - N/A   Overcast
4:44 AM 28.4 °F 22.2 °F 26.6 °F 93% 30.00 in 1.5 mi NNE 5.8 mph - 0.01 in Snow Light Snow
4:51 AM 28.4 °F 21.2 °F 26.6 °F 93% 30.00 in 1.5 mi NNE 6.9 mph - 0.01 in Snow Light Snow
4:53 AM 28.9 °F 22.8 °F 27.0 °F 92% 30.03 in 1.2 mi NNE 5.8 mph - 0.01 in Snow Light Snow
5:26 AM 28.4 °F 19.1 °F 26.6 °F 93% 30.00 in 1.2 mi NNE 10.4 mph - 0.01 in Snow Light Snow
5:53 AM 28.0 °F 16.5 °F 25.0 °F 88% 30.05 in 1.8 mi NE 15.0 mph - 0.01 in Snow Light Snow
6:33 AM 26.6 °F 13.4 °F 23.0 °F 86% 30.02 in 2.5 mi NE 18.4 mph - 0.00 in Snow Light Snow
6:41 AM 26.6 °F 14.7 °F 23.0 °F 86% 30.03 in 2.0 mi NE 15.0 mph - 0.00 in Snow Light Snow
6:48 AM 26.6 °F 14.3 °F 23.0 °F 86% 30.02 in 1.5 mi NE 16.1 mph - 0.00 in Snow Light Snow
6:53 AM 26.1 °F 14.0 °F 23.0 °F 88% 30.06 in 1.5 mi NE 15.0 mph - 0.00 in Snow Light Snow
7:29 AM 24.8 °F 12.4 °F 21.2 °F 86% 30.03 in 2.0 mi NE 15.0 mph - 0.00 in Snow Light Snow
7:44 AM 24.8 °F 11.5 °F 21.2 °F 86% 30.03 in 1.8 mi NE 17.3 mph - 0.00 in Snow Light Snow
7:53 AM 24.1 °F 11.0 °F 21.0 °F 88% 30.06 in 1.8 mi NE 16.1 mph - 0.00 in Snow Light Snow
8:53 AM 21.9 °F 9.8 °F 19.0 °F 89% 30.09 in 1.2 mi NE 12.7 mph - 0.00 in Snow Light Snow
9:12 AM 21.2 °F 7.8 °F 19.4 °F 93% 30.06 in 2.0 mi NE 15.0 mph - 0.00 in Snow Light Snow
9:21 AM 21.2 °F 7.8 °F 19.4 °F 93% 30.06 in 3.0 mi NE 15.0 mph - 0.00 in Snow Light Snow
9:53 AM 21.9 °F 8.7 °F 18.0 °F 85% 30.08 in 7.0 mi NNE 15.0 mph - 0.00 in Snow Light Snow
10:41 AM 21.2 °F 8.3 °F 17.6 °F 86% 30.04 in 9.0 mi NE 13.8 mph - 0.00 in Snow Light Snow
10:53 AM 21.9 °F 8.7 °F 18.0 °F 85% 30.08 in 9.0 mi NNE 15.0 mph - 0.00 in   Overcast
11:36 AM 21.2 °F 8.3 °F 17.6 °F 86% 30.04 in 1.5 mi NNE 13.8 mph - 0.00 in Snow Light Snow
11:49 AM 21.2 °F 7.8 °F 17.6 °F 86% 30.03 in 0.5 mi NNE 15.0 mph - 0.00 in Snow Light Snow
11:53 AM 21.9 °F 9.2 °F 17.1 °F 82% 30.06 in 0.5 mi NNE 13.8 mph - 0.00 in Snow Light Snow
12:38 PM 21.2 °F 9.5 °F 17.6 °F 86% 29.97 in 1.0 mi North 11.5 mph - 0.00 in Snow Light Snow
12:50 PM 21.2 °F 7.8 °F 17.6 °F 86% 29.96 in 1.0 mi North 15.0 mph - 0.00 in Snow Light Snow
12:53 PM 21.9 °F 8.2 °F 18.0 °F 85% 29.99 in 1.0 mi North 16.1 mph - 0.00 in Snow Light Snow
1:34 PM 21.2 °F 8.3 °F 17.6 °F 86% 29.93 in 0.8 mi North 13.8 mph - 0.00 in Snow Light Snow
1:43 PM 21.2 °F 7.8 °F 17.6 °F 86% 29.92 in 0.8 mi North 15.0 mph - 0.00 in Snow Light Snow
1:53 PM 21.0 °F 7.6 °F 18.0 °F 88% 29.95 in 0.5 mi North 15.0 mph - 0.00 in Snow Light Snow
2:53 PM 21.9 °F 8.2 °F 18.0 °F 85% 29.92 in 0.5 mi North 16.1 mph - 0.00 in Fog Light Freezing Fog
3:53 PM 21.9 °F 8.2 °F 19.0 °F 89% 29.89 in 0.5 mi North 16.1 mph - 0.00 in Fog Light Freezing Fog
4:11 PM 21.2 °F 6.4 °F 19.4 °F 93% 29.85 in 0.5 mi North 18.4 mph - 0.01 in Fog Light Freezing Fog
4:53 PM 21.9 °F 7.3 °F 19.0 °F 89% 29.87 in 0.5 mi North 18.4 mph - 0.01 in Fog Light Freezing Fog
5:00 PM 21.2 °F 6.0 °F 19.4 °F 93% 29.84 in 0.2 mi North 19.6 mph - N/A Fog Light Freezing Fog
5:53 PM 21.0 °F 5.0 °F 18.0 °F 88% 29.83 in 0.8 mi North 21.9 mph 27.6 mph 0.01 in Snow Light Snow
6:21 PM 21.2 °F 5.6 °F 17.6 °F 86% 29.81 in 0.5 mi North 20.7 mph - 0.01 in   Overcast
6:34 PM 21.2 °F 6.0 °F 17.6 °F 86% 29.81 in 0.5 mi North 19.6 mph - 0.01 in   Overcast
6:53 PM 21.0 °F 6.2 °F 17.1 °F 85% 29.82 in 0.5 mi North 18.4 mph 25.3 mph 0.01 in   Overcast
7:05 PM 19.4 °F 4.1 °F 17.6 °F 93% 29.78 in 1.0 mi North 18.4 mph 26.5 mph N/A   Mist
7:42 PM 19.4 °F 3.6 °F 15.8 °F 86% 29.78 in 1.0 mi North 19.6 mph - N/A   Overcast
7:53 PM 19.9 °F 3.9 °F 16.0 °F 85% 29.81 in 2.0 mi North 20.7 mph - N/A   Overcast
8:17 PM 19.4 °F 2.5 °F 15.8 °F 86% 29.75 in 1.5 mi North 23.0 mph - N/A   Overcast
8:36 PM 19.4 °F 3.2 °F 15.8 °F 86% 29.74 in 1.2 mi North 20.7 mph - N/A   Overcast
8:53 PM 19.0 °F 1.6 °F 15.1 °F 85% 29.76 in 1.8 mi North 24.2 mph - N/A   Overcast
9:05 PM 19.4 °F 2.8 °F 15.8 °F 86% 29.73 in 2.0 mi North 21.9 mph - N/A   Overcast
9:26 PM 19.4 °F 2.8 °F 15.8 °F 86% 29.70 in 3.0 mi North 21.9 mph - N/A   Overcast
9:36 PM 19.4 °F 3.2 °F 14.0 °F 80% 29.69 in 2.5 mi North 20.7 mph - N/A   Haze
9:53 PM 19.0 °F 2.7 °F 15.1 °F 85% 29.72 in 2.0 mi North 20.7 mph - N/A   Overcast
10:11 PM 19.4 °F 3.2 °F 14.0 °F 80% 29.69 in 3.0 mi NNW 20.7 mph - N/A   Haze
10:30 PM 17.6 °F 0.5 °F 14.0 °F 86% 29.68 in 2.5 mi NNW 21.9 mph - N/A   Overcast
10:53 PM 18.0 °F 1.3 °F 14.0 °F 84% 29.71 in 2.5 mi NNW 20.7 mph 27.6 mph 0.00 in Snow Light Snow
11:22 PM 17.6 °F 0.9 °F 12.2 °F 79% 29.66 in 3.0 mi NNW 20.7 mph - 0.00 in Snow Light Snow
11:43 PM 17.6 °F 0.1 °F 12.2 °F 79% 29.65 in 2.5 mi NNW 23.0 mph - 0.00 in Snow Light Snow
11:53 PM 17.1 °F 1.0 °F 12.0 °F 81% 29.69 in 1.2 mi NNW 18.4 mph 31.1 mph 0.00 in Snow Light Snow